[[{"header":{"parameterUnit":"m.s-1","parameterCategory":1,"la1":30.2991,"la2":30.254,"lo1":-89.0895,"lo2":-89.0444,"dy":0.0017,"dx":0.0017,"nx":28,"ny":28,"refTime":"2025-09-04T21:00:00:Z","depth":0,"parameterNumber":2,"parameterNumberName":"U-component_of_WINDS"},"data":[0,0,0,0,0,0,0,0,0,0,0,0,0,0,0,0,0,0,0,0,0,0,0,0,0,0,0,0,0,0,0,0,0,0,0,0,0,0,0,0,0,0,0,0,0,0,0,0,0,0,0,0,0,0,0,0,0,0,1.4288,1.4288,0,1.4247,1.4247,1.4246,1.4187,1.4186,1.4185,1.4184,1.4141,1.4141,1.4141,0,0,0,0,0,0,0,0,0,0,0,0,0,1.4314,1.4314,1.4289,1.4288,1.4288,1.4247,1.4247,1.4246,1.4187,1.4186,1.4185,1.4184,1.4141,1.4141,1.4141,0,0,0,0,0,0,0,0,0,0,0,0,0,1.4291,1.4314,1.4289,1.4253,1.425,1.4247,1.4247,1.4246,1.4187,1.4186,1.4184,1.4183,1.4141,1.4141,1.4141,1.417,0,0,1.414,1.414,0,0,0,0,0,0,0,0,1.4292,1.429,1.4259,1.4256,1.4252,1.4221,1.424,1.422,1.4188,1.4211,1.4184,1.4182,1.4169,1.4166,1.4162,1.4168,1.4166,1.414,1.414,1.414,1.414,0,0,0,0,0,0,0,1.4294,1.4291,1.4272,1.4259,1.4254,1.4239,1.4234,1.4236,1.4199,1.4209,1.4205,1.42,1.4167,1.4162,1.416,1.4165,1.414,1.414,1.414,1.4139,1.4188,1.4189,0,0,0,0,0,0,1.4301,1.4293,1.4273,1.4271,1.4269,1.4239,1.4234,1.4232,1.4199,1.4192,1.4202,1.4198,1.4164,1.4161,1.4159,1.4187,1.414,1.4139,1.4139,1.4187,1.4188,1.419,0,0,0,0,0,0,1.4302,1.43,1.4275,1.4281,1.4276,1.4241,1.4239,1.4232,1.4228,1.4193,1.4186,1.4204,1.4162,1.4159,1.4166,1.4185,1.4139,1.4139,1.4185,1.4187,1.4189,1.4246,0,0,0,0,0,0,1.4303,1.43,1.4312,1.4281,1.4276,1.4285,1.424,1.4232,1.4227,1.4222,1.4194,1.4188,1.4161,1.4167,1.4166,1.4184,1.4139,1.4183,1.4186,1.4188,1.4242,1.425,1.4256,0,0,0,0,0,1.4304,1.433,1.4313,1.4311,1.429,1.4286,1.4283,1.4251,1.4229,1.4239,1.4217,1.4189,1.4183,1.4168,1.4167,1.4184,1.4182,1.4185,1.4188,1.4239,1.4248,1.4256,0,0,0,0,0,0,1.4364,1.4326,1.4306,1.4323,1.4308,1.4276,1.4288,1.4263,1.4253,1.4248,1.421,1.4204,1.4215,1.4201,1.4185,1.4208,1.4178,1.4181,1.4217,1.4226,1.4233,1.4235,1.4139,0,0,0,0,0,1.438,1.438,1.4346,1.4365,1.4358,1.4325,1.4322,1.4298,1.4281,1.4274,1.4252,1.4236,1.423,1.4228,1.4221,1.424,1.4231,1.4251,1.4258,1.4264,1.4267,1.4272,1.428,1.4201,1.4201,1.4201,0,0,1.4412,1.439,1.4393,1.4376,1.4362,1.4362,1.432,1.4322,1.4321,1.4275,1.4279,1.4263,1.4242,1.4254,1.4259,1.4243,1.4287,1.4268,1.4273,1.4273,1.4276,1.4284,1.4291,1.4203,1.4202,1.4202,0,0,1.4469,1.4454,1.4466,1.4452,1.443,1.4407,1.441,1.4381,1.4368,1.4372,1.4336,1.4334,1.4326,1.4311,1.4303,1.4351,1.4324,1.435,1.4386,1.4392,1.4398,1.4404,1.4418,1.4424,1.4353,1.4354,1.4354,0,1.4511,1.451,1.4476,1.4479,1.4472,1.4429,1.444,1.4428,1.4405,1.44,1.4382,1.4369,1.4352,1.4359,1.437,1.4366,1.4366,1.4353,1.4401,1.4405,1.441,1.4423,1.4429,1.4357,1.4356,1.4356,1.4356,0,1.4561,1.456,1.4573,1.455,1.4544,1.4552,1.4518,1.4515,1.4492,1.4471,1.4473,1.4452,1.4438,1.4438,1.4416,1.4441,1.4431,1.4408,1.4376,1.4421,1.4433,1.4438,1.4361,1.436,1.4359,1.4358,0,0,1.4655,1.4612,1.4617,1.4605,1.4577,1.4575,1.458,1.4566,1.4563,1.4549,1.4549,1.4542,1.4519,1.451,1.4485,1.4491,1.4527,1.4466,1.4465,1.4476,1.4549,1.4565,1.4571,1.4509,1.451,1.4511,1.4549,0,1.4705,1.471,1.4678,1.4691,1.4689,1.4647,1.465,1.4632,1.4612,1.4606,1.4583,1.4577,1.4549,1.4542,1.4546,1.4522,1.454,1.4519,1.4507,1.4507,1.4512,1.4578,1.4596,1.4634,1.4554,1.4555,1.4555,0,1.4764,1.475,1.4763,1.4731,1.4729,1.4732,1.4715,1.4711,1.4689,1.4673,1.4661,1.4633,1.4633,1.4604,1.4602,1.4588,1.4581,1.4568,1.4569,1.4565,1.4533,1.4573,1.4645,1.465,1.4563,1.4562,1.4562,0,1.4827,1.4813,1.4818,1.4809,1.4773,1.4776,1.4761,1.4737,1.473,1.4715,1.4709,1.4695,1.4686,1.4675,1.4642,1.4625,1.4643,1.4612,1.4628,1.4629,1.4633,1.4632,1.4702,1.4633,1.4633,1.4632,1.4632,0,1.4885,1.4893,1.4845,1.4848,1.4856,1.4819,1.4827,1.4807,1.4786,1.4783,1.4747,1.4745,1.4703,1.4696,1.467,1.4671,1.4668,1.4654,1.4647,1.4656,1.4657,1.4649,1.4645,1.4634,1.4634,1.4633,1.4633,0,1.4957,1.4926,1.4927,1.4892,1.4883,1.489,1.4859,1.4859,1.4836,1.4832,1.4829,1.4792,1.4781,1.4748,1.4729,1.4712,1.4719,1.4707,1.4726,1.4721,1.4738,1.4735,1.4803,1.4808,1.4738,1.4739,1.474,0,1.4995,1.5,1.4964,1.4959,1.4946,1.4939,1.493,1.4894,1.4886,1.486,1.4862,1.4848,1.4835,1.4819,1.479,1.4774,1.476,1.4785,1.4757,1.4765,1.4757,1.4756,1.4755,1.479,1.4791,1.4792,1.4792,0,1.5063,1.5047,1.5037,1.502,1.5011,1.4996,1.4979,1.4977,1.4935,1.4929,1.4916,1.4906,1.4885,1.4871,1.485,1.4833,1.4805,1.4801,1.4803,1.4812,1.4822,1.4814,1.4739,1.48,1.4799,1.4798,1.4798,1.4798,1.5117,1.5119,1.5093,1.5082,1.5065,1.5049,1.5047,1.5022,1.5012,1.4992,1.497,1.496,1.4935,1.4904,1.4889,1.4879,1.4864,1.4869,1.4869,1.487,1.4873,1.4825,1.4875,1.4875,1.4875,1.4875,1.4875,0,1.5182,1.5163,1.5153,1.5129,1.512,1.5094,1.5074,1.5067,1.5058,1.5037,1.5024,1.5009,1.4994,1.4963,1.4945,1.4943,1.4929,1.4939,1.4937,1.4933,1.4889,1.4887,1.495,1.495,1.495,1.495,1.495,1.495,1.5214,1.5214,1.5194,1.5184,1.5165,1.5154,1.5144,1.5129,1.5111,1.5096,1.5083,1.5063,1.5037,1.5016,1.5,1.4991,1.4985,1.4999,1.4986,1.4944,1.4937,1.493,1.4928,1.4998,1.4999,1.503,1.5031,1.5031]},{"header":{"parameterUnit":"m.s-1","parameterCategory":1,"la1":30.2991,"la2":30.254,"lo1":-89.0895,"lo2":-89.0444,"dy":0.0017,"dx":0.0017,"nx":28,"ny":28,"refTime":"2025-09-04T21:00:00:Z","depth":0,"parameterNumber":3,"parameterNumberName":"V-component_of_WINDS"},"data":[0,0,0,0,0,0,0,0,0,0,0,0,0,0,0,0,0,0,0,0,0,0,0,0,0,0,0,0,0,0,0,0,0,0,0,0,0,0,0,0,0,0,0,0,0,0,0,0,0,0,0,0,0,0,0,0,0,0,3.5683,3.5683,0,3.5701,3.5701,3.5701,3.5655,3.5653,3.5652,3.565,3.5667,3.5669,3.5671,0,0,0,0,0,0,0,0,0,0,0,0,0,3.5605,3.5607,3.5683,3.5683,3.5683,3.5701,3.5701,3.5701,3.5655,3.5653,3.5651,3.565,3.5666,3.5669,3.5671,0,0,0,0,0,0,0,0,0,0,0,0,0,3.5633,3.5608,3.5683,3.5662,3.5661,3.57,3.5701,3.5701,3.5655,3.5653,3.5651,3.5649,3.5666,3.5668,3.5671,3.5731,0,0,3.5679,3.568,0,0,0,0,0,0,0,0,3.5631,3.5636,3.5665,3.5664,3.5662,3.5673,3.568,3.5711,3.5656,3.5657,3.565,3.5648,3.5671,3.5673,3.5681,3.5732,3.5732,3.5679,3.5681,3.5682,3.5683,0,0,0,0,0,0,0,3.5629,3.5635,3.569,3.5665,3.5664,3.5651,3.5653,3.5685,3.5676,3.5657,3.5654,3.5656,3.5669,3.5678,3.5681,3.5733,3.5679,3.5682,3.5683,3.5684,3.583,3.5832,0,0,0,0,0,0,3.563,3.5633,3.5689,3.569,3.5641,3.5654,3.5656,3.5672,3.5675,3.5674,3.5658,3.5654,3.5675,3.5678,3.5681,3.5749,3.5682,3.5685,3.5686,3.5828,3.5831,3.5833,0,0,0,0,0,0,3.5629,3.5636,3.5688,3.5661,3.5667,3.5658,3.5676,3.5673,3.5682,3.5676,3.5674,3.5669,3.5673,3.5678,3.5718,3.5749,3.5686,3.5688,3.5825,3.5829,3.5832,3.5887,0,0,0,0,0,0,3.5627,3.5636,3.5659,3.5662,3.5668,3.5726,3.5678,3.5675,3.5687,3.5682,3.5686,3.5685,3.5672,3.5715,3.5721,3.5752,3.569,3.5822,3.5827,3.5831,3.5882,3.5892,3.59,0,0,0,0,0,3.5624,3.5675,3.5661,3.5668,3.5698,3.5728,3.5732,3.5716,3.569,3.5713,3.5708,3.5685,3.5745,3.5719,3.5726,3.5758,3.582,3.5826,3.5831,3.5878,3.589,3.59,0,0,0,0,0,0,3.5676,3.5675,3.5659,3.5712,3.572,3.572,3.5749,3.573,3.5745,3.574,3.572,3.5721,3.5765,3.5766,3.5737,3.5815,3.5778,3.5785,3.5812,3.5823,3.5832,3.583,3.5693,0,0,0,0,0,3.5694,3.5719,3.5716,3.5763,3.5768,3.5758,3.577,3.5758,3.5765,3.5769,3.5768,3.5776,3.5796,3.581,3.5829,3.5883,3.5882,3.5908,3.5917,3.5924,3.593,3.5955,3.5966,3.585,3.585,3.585,0,0,3.573,3.5732,3.575,3.5773,3.5778,3.5804,3.5761,3.5791,3.5809,3.5773,3.5811,3.581,3.5818,3.5865,3.5885,3.5867,3.5962,3.5931,3.5937,3.5938,3.5962,3.5973,3.5983,3.5853,3.5853,3.5852,0,0,3.5809,3.5814,3.5852,3.5858,3.5866,3.5858,3.5868,3.587,3.5868,3.5906,3.5879,3.59,3.5937,3.5942,3.5949,3.6028,3.6006,3.6035,3.608,3.6106,3.6115,3.6123,3.6148,3.6158,3.6041,3.6041,3.6041,0,3.5853,3.5891,3.5874,3.5904,3.5914,3.5883,3.592,3.5927,3.594,3.5947,3.5927,3.597,3.5973,3.6019,3.6038,3.6047,3.6055,3.6034,3.6115,3.6123,3.613,3.6154,3.6164,3.6044,3.6044,3.6044,3.6043,0,3.5943,3.5969,3.5999,3.6012,3.6026,3.6059,3.6046,3.6062,3.6048,3.6042,3.6079,3.6082,3.6099,3.611,3.6097,3.6154,3.6142,3.6119,3.6081,3.6145,3.6167,3.6176,3.6049,3.6048,3.6047,3.6046,0,0,3.6054,3.6057,3.6068,3.6072,3.6078,3.6097,3.6129,3.6146,3.6158,3.6169,3.6193,3.6224,3.6202,3.6211,3.6198,3.622,3.6279,3.6194,3.6194,3.6207,3.6339,3.6354,3.6365,3.6265,3.6267,3.6268,3.6337,0,3.613,3.6184,3.6168,3.6222,3.6244,3.6215,3.6241,3.6247,3.6243,3.626,3.6255,3.6276,3.6247,3.6251,3.6273,3.6268,3.6305,3.6263,3.6286,3.6287,3.6282,3.6377,3.6394,3.6459,3.6346,3.6348,3.6349,0,3.6225,3.6238,3.6293,3.6293,3.6302,3.6326,3.6339,3.6357,3.6362,3.6357,3.6366,3.6348,3.6377,3.6341,3.638,3.6351,3.636,3.6359,3.6361,3.6361,3.632,3.6377,3.648,3.6489,3.6363,3.6362,3.6361,0,3.6297,3.6329,3.6365,3.637,3.6371,3.6389,3.639,3.6393,3.6403,3.6415,3.6421,3.6436,3.6443,3.6455,3.6441,3.6416,3.6481,3.6444,3.6475,3.6476,3.6488,3.6487,3.6592,3.6498,3.6498,3.6498,3.6498,0,3.6382,3.6416,3.6397,3.6419,3.6456,3.6438,3.6475,3.6472,3.6475,3.6495,3.6471,3.6491,3.6472,3.6489,3.6478,3.651,3.6515,3.651,3.6506,3.6511,3.6511,3.6515,3.6509,3.6501,3.65,3.65,3.6499,0,3.6468,3.6457,3.6494,3.6492,3.6492,3.6519,3.6516,3.6535,3.6529,3.6554,3.6559,3.6549,3.6567,3.6555,3.6574,3.6567,3.6608,3.66,3.6606,3.6603,3.6634,3.663,3.6742,3.6755,3.6656,3.6657,3.6658,0,3.6521,3.6547,3.6546,3.6558,3.656,3.658,3.659,3.6573,3.6584,3.659,3.6609,3.6626,3.6638,3.6669,3.6663,3.6677,3.6666,3.6705,3.6668,3.6671,3.6664,3.6661,3.6663,3.6711,3.6713,3.6714,3.6714,0,3.6616,3.6609,3.6624,3.6637,3.6649,3.6659,3.6666,3.6677,3.666,3.6673,3.6692,3.6701,3.672,3.6736,3.6748,3.6748,3.6728,3.6726,3.6733,3.6737,3.6739,3.6736,3.6623,3.6723,3.6722,3.6722,3.6721,3.6721,3.6686,3.6706,3.6708,3.6725,3.6728,3.6735,3.6753,3.6748,3.6763,3.6776,3.6766,3.6787,3.679,3.6803,3.6806,3.6822,3.6806,3.6817,3.682,3.6822,3.6825,3.6738,3.6824,3.6824,3.6823,3.6823,3.6823,0,3.6777,3.6776,3.6792,3.6803,3.6816,3.6796,3.6802,3.6814,3.6833,3.6838,3.685,3.687,3.6885,3.688,3.6893,3.6906,3.6897,3.691,3.6908,3.6907,3.684,3.6831,3.6917,3.6917,3.6917,3.6917,3.6917,3.6917,3.6826,3.6857,3.685,3.6883,3.6882,3.6902,3.6907,3.6913,3.6916,3.6939,3.6951,3.6948,3.6947,3.696,3.6972,3.697,3.6975,3.6991,3.6985,3.6922,3.6913,3.6904,3.6895,3.6993,3.6993,3.7051,3.7051,3.7052]}]]